DW9017 Weather Reports


time (UTC)temp
F
wind
direction
speed
knots
gust
knots
rain 1hr
in
rain 24hr
in
rain mn
in
humidity
%
barometer
mb
20260906224124 95 275 0.0 6.1 0.00 0.00 0.00 28 1014.9
20260906224004 0 274 0.0 6.1 0.00 0.00 0.00 1015.2
20260906223656 94 297 0.0 2.6 0.00 0.00 0.00 28 1014.9
20260906223514 0 16 0.0 4.3 0.00 0.00 0.00 1015.3
20260906223145 94 3 0.0 4.3 0.00 0.00 0.00 29 1015.0
20260906223013 0 56 0.0 4.3 0.00 0.00 0.00 1015.3
20260906222634 94 17 1.7 4.3 0.00 0.00 0.00 28 1015.1
20260906222515 0 39 0.0 4.3 0.00 0.00 0.00 1015.3
20260906222126 94 351 0.0 6.1 0.00 0.00 0.00 28 1015.2
20260906222010 0 23 0.0 6.1 0.00 0.00 0.00 1015.5
20260906221653 94 337 1.7 6.1 0.00 0.00 0.00 28 1015.2
20260906221509 0 354 0.9 6.1 0.00 0.00 0.00 1015.5
20260906221122 93 332 1.7 6.1 0.00 0.00 0.00 28 1015.3
20260906221015 0 332 1.7 7.8 0.00 0.00 0.00 1015.7
20260906220634 93 40 0.9 7.0 0.00 0.00 0.00 29 1015.4
20260906220511 0 1 0.0 7.8 0.00 0.00 0.00 1015.7
20260906220126 93 34 2.6 8.7 0.00 0.00 0.00 28 1015.5
20260906220006 0 37 1.7 9.6 0.00 0.00 0.00 1015.8
20260906215639 93 24 1.7 8.7 0.00 0.00 0.00 28 1015.5
20260906215516 0 18 2.6 9.6 0.00 0.00 0.00 1015.9
20260906215133 94 335 0.9 7.8 0.00 0.00 0.00 28 1015.6
20260906215007 0 313 0.0 4.3 0.00 0.00 0.00 1016.0
20260906214624 93 329 0.9 6.1 0.00 0.00 0.00 28 1015.8
20260906214536 0 345 0.0 8.7 0.00 0.00 0.00 1016.1
20260906214137 94 55 0.0 7.8 0.00 0.00 0.00 30 1015.8
20260906214018 0 55 0.0 8.7 0.00 0.00 0.00 1016.2
20260906213651 94 28 1.7 7.8 0.00 0.00 0.00 28 1015.9
20260906213509 0 56 0.0 6.1 0.00 0.00 0.00 1016.2
20260906213141 94 332 1.7 6.1 0.00 0.00 0.00 28 1015.8
20260906213028 0 17 0.0 6.1 0.00 0.00 0.00 1016.2
20260906212632 94 53 0.0 7.0 0.00 0.00 0.00 27 1016.2
20260906212511 0 55 0.0 7.8 0.00 0.00 0.00 1016.4
20260906212142 94 66 1.7 8.7 0.00 0.00 0.00 29 1016.2
20260906212016 0 51 0.9 9.6 0.00 0.00 0.00 1016.5
20260906211624 94 57 2.6 8.7 0.00 0.00 0.00 29 1016.3
20260906211534 0 7 3.5 9.6 0.00 0.00 0.00 1016.6
20260906211139 94 63 0.0 7.8 0.00 0.00 0.00 29 1016.3
20260906211008 0 355 0.0 7.8 0.00 0.00 0.00 1016.6
20260906210631 94 337 0.9 7.0 0.00 0.00 0.00 28 1016.4
20260906210521 0 19 0.0 8.7 0.00 0.00 0.00 1016.8
20260906210141 94 35 0.9 7.0 0.00 0.00 0.00 29 1016.6
20260906210024 0 35 1.7 8.7 0.00 0.00 0.00 1017.0
20260906205633 93 117 1.7 7.0 0.00 0.00 0.00 28 1016.6
20260906205506 0 94 1.7 8.7 0.00 0.00 0.00 1017.0
20260906205144 93 93 0.0 7.0 0.00 0.00 0.00 29 1016.7
20260906205016 0 69 0.9 8.7 0.00 0.00 0.00 1017.1
20260906204626 93 47 1.7 6.1 0.00 0.00 0.00 31 1016.8
20260906204514 0 71 1.7 5.2 0.00 0.00 0.00 1017.2
20260906204157 93 32 0.0 4.3 0.00 0.00 0.00 30 1016.9
20260906204014 0 32 0.0 5.2 0.00 0.00 0.00 1017.3
20260906203622 92 74 0.9 4.3 0.00 0.00 0.00 30 1016.9
20260906203514 0 357 0.0 6.1 0.00 0.00 0.00 1017.3
20260906203135 92 59 0.0 5.2 0.00 0.00 0.00 30 1017.0
20260906203014 0 59 0.0 6.1 0.00 0.00 0.00 1017.4
20260906202627 92 40 0.9 7.0 0.00 0.00 0.00 30 1017.0
20260906202514 0 34 0.0 9.6 0.00 0.00 0.00 1017.4
20260906202132 92 69 0.9 8.7 0.00 0.00 0.00 29 1017.1
20260906202015 0 87 3.5 9.6 0.00 0.00 0.00 1017.5
20260906201643 92 101 5.2 9.6 0.00 0.00 0.00 29 1017.1
20260906201510 0 77 2.6 9.6 0.00 0.00 0.00 1017.6
20260906201132 92 21 0.9 6.1 0.00 0.00 0.00 29 1017.2
20260906201018 0 43 0.0 6.1 0.00 0.00 0.00 1017.7
20260906200624 91 46 1.7 6.1 0.00 0.00 0.00 29 1017.2
20260906200516 0 51 1.7 6.1 0.00 0.00 0.00 1017.8
20260906200138 91 121 1.7 6.1 0.00 0.00 0.00 29 1017.3
20260906200038 0 130 1.7 6.1 0.00 0.00 0.00 1017.8
20260906195630 91 115 0.0 6.1 0.00 0.00 0.00 29 1017.4
20260906195512 0 78 0.0 7.0 0.00 0.00 0.00 1017.9
20260906195141 91 13 0.0 6.1 0.00 0.00 0.00 29 1017.5
20260906195009 0 13 0.0 7.0 0.00 0.00 0.00 1018.0
20260906194633 91 73 1.7 6.1 0.00 0.00 0.00 30 1017.5
20260906194530 0 78 0.0 7.0 0.00 0.00 0.00 1018.0
20260906194123 91 94 1.7 7.0 0.00 0.00 0.00 30 1017.5
20260906194013 0 119 0.0 7.0 0.00 0.00 0.00 1018.0
20260906193637 91 96 1.7 7.0 0.00 0.00 0.00 30 1017.6
20260906193508 0 34 0.0 4.3 0.00 0.00 0.00 1018.0
20260906193150 91 340 0.9 4.3 0.00 0.00 0.00 29 1017.6
20260906193029 0 348 0.9 4.3 0.00 0.00 0.00 1018.1
20260906192701 90 32 0.0 3.5 0.00 0.00 0.00 30 1017.7
20260906192511 0 109 0.0 7.0 0.00 0.00 0.00 1018.1
20260906192134 90 74 0.0 8.7 0.00 0.00 0.00 29 1017.8
20260906192014 0 76 0.0 9.6 0.00 0.00 0.00 1018.2
20260906191647 90 55 2.6 8.7 0.00 0.00 0.00 31 1017.9
20260906191527 0 40 2.6 9.6 0.00 0.00 0.00 1018.3
20260906191148 90 23 0.9 4.3 0.00 0.00 0.00 31 1018.0
20260906191008 0 344 0.9 7.0 0.00 0.00 0.00 1018.3
20260906190640 90 33 0.0 6.1 0.00 0.00 0.00 34 1018.0
20260906190516 0 89 0.0 7.0 0.00 0.00 0.00 1018.4
20260906190131 89 107 2.6 6.1 0.00 0.00 0.00 33 1018.1
20260906190026 0 65 0.9 6.1 0.00 0.00 0.00 1018.5
20260906185623 89 31 0.9 5.2 0.00 0.00 0.00 33 1018.2
20260906185510 0 31 0.0 6.1 0.00 0.00 0.00 1018.7
20260906185151 88 101 1.7 5.2 0.00 0.00 0.00 33 1018.4
20260906185016 0 70 0.0 5.2 0.00 0.00 0.00 1018.8
20260906184641 88 53 0.0 0.9 0.00 0.00 0.00 33 1018.5
20260906184518 0 7 0.0 3.5 0.00 0.00 0.00 1018.9
20260906184131 88 9 0.0 2.6 0.00 0.00 0.00 34 1018.5
20260906184013 0 31 0.0 3.5 0.00 0.00 0.00 1019.1
20260906183641 87 86 0.9 5.2 0.00 0.00 0.00 36 1018.6
20260906183518 0 55 0.0 6.1 0.00 0.00 0.00 1019.2
20260906183132 86 32 0.0 6.1 0.00 0.00 0.00 35 1018.7
20260906183027 0 32 0.9 6.1 0.00 0.00 0.00 1019.3
20260906182623 86 69 0.0 6.1 0.00 0.00 0.00 36 1018.8
20260906182517 0 60 0.0 6.1 0.00 0.00 0.00 1019.4
20260906182138 86 82 0.0 4.3 0.00 0.00 0.00 35 1018.9
20260906182015 0 82 0.0 5.2 0.00 0.00 0.00 1019.5
20260906181628 86 55 0.0 3.5 0.00 0.00 0.00 36 1019.0
20260906181515 0 45 0.0 4.3 0.00 0.00 0.00 1019.6
20260906181141 86 44 0.0 4.3 0.00 0.00 0.00 36 1019.1
20260906181016 0 55 0.0 4.3 0.00 0.00 0.00 1019.7
20260906180631 86 38 0.9 4.3 0.00 0.00 0.00 38 1019.1
20260906180515 0 175 0.0 6.1 0.00 0.00 0.00 1019.6
20260906180143 85 88 0.0 6.1 0.00 0.00 0.00 38 1019.2
20260906180039 0 99 0.0 6.1 0.00 0.00 0.00 1019.7
20260906175636 84 103 0.9 6.1 0.00 0.00 0.00 39 1019.3
20260906175516 0 33 0.0 5.2 0.00 0.00 0.00 1019.7
20260906175147 84 96 0.0 4.3 0.00 0.00 0.00 37 1019.4
20260906175011 0 96 0.0 5.2 0.00 0.00 0.00 1019.8
20260906174634 84 74 0.0 3.5 0.00 0.00 0.00 41 1019.6
20260906174535 0 80 0.0 4.3 0.00 0.00 0.00 1020.0
20260906174126 83 80 0.9 3.5 0.00 0.00 0.00 42 1019.6
20260906174014 0 99 0.9 4.3 0.00 0.00 0.00 1020.1
20260906173657 82 101 0.9 3.5 0.00 0.00 0.00 41 1019.7
20260906173509 0 98 0.0 1.7 0.00 0.00 0.00 1020.3
20260906173128 82 42 0.0 0.0 0.00 0.00 0.00 42 1019.9
20260906173026 0 19 0.0 0.0 0.00 0.00 0.00 1020.4
20260906172638 81 19 0.0 0.0 0.00 0.00 0.00 42 1020.1
20260906172512 0 19 0.0 0.0 0.00 0.00 0.00 1020.4
20260906172129 81 43 0.0 3.5 0.00 0.00 0.00 43 1020.1
20260906172016 0 43 0.0 3.5 0.00 0.00 0.00 1020.5
20260906171639 80 46 0.0 3.5 0.00 0.00 0.00 44 1020.1
20260906171526 0 46 0.0 3.5 0.00 0.00 0.00 1020.7
20260906171130 80 51 0.0 3.5 0.00 0.00 0.00 46 1020.1
20260906171012 0 37 0.0 0.0 0.00 0.00 0.00 1020.6
20260906170642 79 345 0.0 0.0 0.00 0.00 0.00 46 1020.3
20260906170523 0 280 0.0 0.0 0.00 0.00 0.00 1020.7
20260906170133 79 280 0.0 0.0 0.00 0.00 0.00 45 1020.4
20260906170024 0 224 0.0 0.0 0.00 0.00 0.00 1020.7
20260906165645 79 203 0.0 0.0 0.00 0.00 0.00 45 1020.5
20260906165508 0 203 0.0 0.0 0.00 0.00 0.00 1020.8
20260906165138 78 187 0.0 0.0 0.00 0.00 0.00 46 1020.6
20260906165021 0 177 0.0 0.0 0.00 0.00 0.00 1020.9
20260906164632 78 186 0.0 0.0 0.00 0.00 0.00 46 1020.6
20260906164535 0 195 0.0 0.0 0.00 0.00 0.00 1020.9
20260906164142 77 92 0.0 0.0 0.00 0.00 0.00 48 1020.6
20260906164017 0 92 0.0 1.7 0.00 0.00 0.00 1020.9
20260906163636 77 92 0.0 2.6 0.00 0.00 0.00 48 1020.6
20260906163516 0 92 0.0 2.6 0.00 0.00 0.00 1021.0
20260906163128 76 92 0.0 2.6 0.00 0.00 0.00 50 1020.5
20260906163025 0 92 0.0 2.6 0.00 0.00 0.00 1021.0
20260906162639 76 96 0.0 1.7 0.00 0.00 0.00 52 1020.5
20260906162514 0 98 0.0 0.0 0.00 0.00 0.00 1020.9
20260906162130 76 100 0.0 0.0 0.00 0.00 0.00 54 1020.5
20260906162014 0 94 0.0 0.0 0.00 0.00 0.00 1021.0
20260906161700 75 136 0.0 0.0 0.00 0.00 0.00 56 1020.5
20260906161515 0 136 0.0 0.0 0.00 0.00 0.00 1021.0
20260906161129 75 94 0.0 0.0 0.00 0.00 0.00 57 1020.5
20260906161015 0 94 0.0 0.0 0.00 0.00 0.00 1021.0
20260906160640 74 94 0.0 0.0 0.00 0.00 0.00 57 1020.5
20260906160514 0 94 0.0 0.0 0.00 0.00 0.00 1021.0
20260906160131 74 94 0.0 0.0 0.00 0.00 0.00 57 1020.5
20260906160043 0 93 0.0 0.0 0.00 0.00 0.00 1021.0
20260906155623 74 92 0.0 0.0 0.00 0.00 0.00 59 1020.5
20260906155520 0 38 0.0 0.0 0.00 0.00 0.00 1021.0
20260906155136 74 38 0.0 0.0 0.00 0.00 0.00 60 1020.6
20260906155014 0 38 0.0 0.0 0.00 0.00 0.00 1021.0
20260906154627 74 72 0.0 0.0 0.00 0.00 0.00 60 1020.5
20260906154534 0 72 0.0 0.0 0.00 0.00 0.00 1020.9
20260906154130 73 53 0.0 0.0 0.00 0.00 0.00 63 1020.5
20260906154016 0 96 0.0 0.0 0.00 0.00 0.00 1020.9
20260906153632 73 59 0.0 0.0 0.00 0.00 0.00 64 1020.4
20260906153516 0 61 0.0 0.0 0.00 0.00 0.00 1020.9
20260906153202 73 69 0.0 1.7 0.00 0.00 0.00 64 1020.5
20260906153007 0 80 0.0 2.6 0.00 0.00 0.00 1020.9
20260906152632 72 46 0.0 2.6 0.00 0.00 0.00 65 1020.6
20260906152504 0 46 0.0 2.6 0.00 0.00 0.00 1020.9
20260906152123 72 31 0.0 0.0 0.00 0.00 0.00 66 1020.5
20260906152006 0 20 0.0 0.0 0.00 0.00 0.00 1020.9
20260906151629 72 19 0.0 0.0 0.00 0.00 0.00 67 1020.6
20260906151504 0 19 0.0 0.0 0.00 0.00 0.00 1020.9
20260906151142 71 19 0.0 0.0 0.00 0.00 0.00 68 1020.6
20260906151004 0 19 0.0 0.0 0.00 0.00 0.00 1020.9
20260906150635 71 306 0.0 0.0 0.00 0.00 0.00 68 1020.7
20260906150504 0 306 0.0 0.0 0.00 0.00 0.00 1021.0
20260906150128 71 306 0.0 0.0 0.00 0.00 0.00 69 1020.7
20260906150016 0 306 0.0 0.0 0.00 0.00 0.00 1021.0
20260906145658 70 306 0.0 0.0 0.00 0.00 0.00 70 1020.7
20260906145502 0 306 0.0 0.0 0.00 0.00 0.00 1021.0
20260906145128 70 306 0.0 0.0 0.00 0.00 0.00 71 1020.7
20260906145004 0 306 0.0 0.0 0.00 0.00 0.00 1021.0
20260906144639 69 306 0.0 0.0 0.00 0.00 0.00 70 1020.7
20260906144504 0 305 0.0 0.0 0.00 0.00 0.00 1021.1
20260906144129 0 305 0.0 0.0 0.00 0.00 0.00 1020.7
20260906144003 0 305 0.0 0.0 0.00 0.00 0.00 1021.2
20260906143630 0 305 0.0 0.9 0.00 0.00 0.00 1020.8
20260906143504 0 306 0.0 0.9 0.00 0.00 0.00 1021.3
20260906143141 0 306 0.0 0.9 0.00 0.00 0.00 1020.8
20260906143003 0 305 0.0 0.9 0.00 0.00 0.00 1021.2
20260906142630 0 327 0.0 0.0 0.00 0.00 0.00 1020.8
20260906142504 0 314 0.0 0.0 0.00 0.00 0.00 1021.0
20260906142141 0 314 0.0 0.0 0.00 0.00 0.00 1020.6
20260906142004 0 313 0.0 0.0 0.00 0.00 0.00 1021.0
20260906141634 0 315 0.0 0.0 0.00 0.00 0.00 1020.6
20260906141504 0 315 0.0 0.0 0.00 0.00 0.00 1021.0
20260906141124 0 311 0.0 0.0 0.00 0.00 0.00 1020.7
20260906141004 0 311 0.0 0.0 0.00 0.00 0.00 1021.0
20260906140640 0 311 0.0 0.0 0.00 0.00 0.00 1020.8
20260906140504 0 311 0.0 0.0 0.00 0.00 0.00 1021.0
20260906140128 0 311 0.0 0.0 0.00 0.00 0.00 1020.8
20260906140004 0 311 0.0 0.0 0.00 0.00 0.00 1021.1
20260906135659 0 311 0.0 0.0 0.00 0.00 0.00 1020.8
20260906135504 0 311 0.0 0.0 0.00 0.00 0.00 1021.0
20260906135128 0 311 0.0 0.0 0.00 0.00 0.00 1020.8
20260906135006 0 311 0.0 0.0 0.00 0.00 0.00 1021.1
20260906134641 0 317 0.0 0.0 0.00 0.00 0.00 1020.8
20260906134503 0 317 0.0 0.0 0.00 0.00 0.00 1021.1
20260906134135 0 317 0.0 0.0 0.00 0.00 0.00 1020.8
20260906134006 0 317 0.0 0.0 0.00 0.00 0.00 1021.0
20260906133625 0 317 0.0 0.0 0.00 0.00 0.00 1020.7
20260906133506 0 317 0.0 0.0 0.00 0.00 0.00 1020.9
20260906133127 0 317 0.0 0.0 0.00 0.00 0.00 1020.6
20260906133003 0 317 0.0 0.0 0.00 0.00 0.00 1020.8
20260906132632 0 317 0.0 0.0 0.00 0.00 0.00 1020.5
20260906132504 0 317 0.0 0.0 0.00 0.00 0.00 1020.8
20260906132142 0 317 0.0 0.0 0.00 0.00 0.00 1020.5
20260906132003 0 317 0.0 0.0 0.00 0.00 0.00 1020.7
20260906131634 0 317 0.0 0.0 0.00 0.00 0.00 1020.6
20260906131514 0 317 0.0 0.0 0.00 0.00 0.00 1020.9
20260906131138 0 317 0.0 0.0 0.00 0.00 0.00 1020.5
20260906131004 0 317 0.0 0.0 0.00 0.00 0.00 1020.9
20260906130627 0 317 0.0 0.0 0.00 0.00 0.00 1020.5
20260906130504 0 317 0.0 0.0 0.00 0.00 0.00 1020.9
20260906130134 0 317 0.0 0.0 0.00 0.00 0.00 1020.4
20260906130004 0 317 0.0 0.0 0.00 0.00 0.00 1020.7
20260906125623 0 317 0.0 0.0 0.00 0.00 0.00 1020.4
20260906125514 0 317 0.0 0.0 0.00 0.00 0.00 1020.7
20260906125132 0 317 0.0 0.0 0.00 0.00 0.00 1020.3
20260906125007 0 317 0.0 0.0 0.00 0.00 0.00 1020.7
20260906124642 0 317 0.0 0.0 0.00 0.00 0.00 1020.3
20260906124528 0 317 0.0 0.0 0.00 0.00 0.00 1020.7
20260906124133 0 317 0.0 0.0 0.00 0.00 0.00 1020.2
20260906124010 0 317 0.0 0.0 0.00 0.00 0.00 1020.7
20260906123623 0 317 0.0 0.0 0.00 0.00 0.00 1020.2
20260906123506 0 317 0.0 0.0 0.00 0.00 0.00 1020.6
20260906123133 0 317 0.0 0.0 0.00 0.00 0.00 1020.3
20260906123023 0 317 0.0 0.0 0.00 0.00 0.00 1020.7
20260906122643 62 317 0.0 0.0 0.00 0.00 0.00 75 1020.3
20260906122511 0 317 0.0 0.0 0.00 0.00 0.00 1020.7
20260906122140 62 317 0.0 0.0 0.00 0.00 0.00 75 1020.3
20260906122004 0 317 0.0 0.0 0.00 0.00 0.00 1020.7
20260906121632 62 317 0.0 0.0 0.00 0.00 0.00 75 1020.3
20260906121504 0 317 0.0 0.0 0.00 0.00 0.00 1020.7
20260906121121 63 317 0.0 0.0 0.00 0.00 0.00 74 1020.4
20260906121003 0 317 0.0 0.0 0.00 0.00 0.00 1020.7
20260906120633 63 317 0.0 0.0 0.00 0.00 0.00 73 1020.3
20260906120503 0 317 0.0 0.0 0.00 0.00 0.00 1020.7
20260906120124 63 317 0.0 0.0 0.00 0.00 0.00 73 1020.4
20260906120014 0 317 0.0 0.0 0.00 0.00 0.00 1020.7
20260906115637 63 317 0.0 0.0 0.00 0.00 0.00 73 1020.3
20260906115506 0 317 0.0 0.0 0.00 0.00 0.00 1020.6
20260906115130 63 317 0.0 0.0 0.00 0.00 0.00 72 1020.3
20260906115013 0 317 0.0 0.0 0.00 0.00 0.00 1020.5
20260906114639 64 317 0.0 0.0 0.00 0.00 0.00 72 1020.3
20260906114532 0 317 0.0 0.0 0.00 0.00 0.00 1020.6
20260906114130 64 317 0.0 0.0 0.00 0.00 0.00 72 1020.3
20260906114011 0 317 0.0 0.0 0.00 0.00 0.00 1020.6
20260906113641 64 317 0.0 0.0 0.00 0.00 0.00 71 1020.2
20260906113517 0 317 0.0 0.0 0.00 0.00 0.00 1020.5
20260906113130 64 317 0.0 0.0 0.00 0.00 0.00 70 1020.2
20260906113011 0 317 0.0 0.0 0.00 0.00 0.00 1020.6
20260906112642 64 317 0.0 0.0 0.00 0.00 0.00 70 1020.2
20260906112514 0 317 0.0 0.0 0.00 0.00 0.00 1020.5
20260906112134 64 317 0.0 0.0 0.00 0.00 0.00 70 1020.2
20260906112012 0 317 0.0 0.0 0.00 0.00 0.00 1020.5
20260906111625 64 317 0.0 0.0 0.00 0.00 0.00 69 1020.1
20260906111506 0 317 0.0 0.0 0.00 0.00 0.00 1020.3
20260906111139 64 317 0.0 0.0 0.00 0.00 0.00 69 1020.1
20260906111015 0 317 0.0 0.0 0.00 0.00 0.00 1020.2
20260906110631 64 317 0.0 0.0 0.00 0.00 0.00 67 1020.0
20260906110510 0 317 0.0 0.0 0.00 0.00 0.00 1020.2
20260906110142 64 317 0.0 0.0 0.00 0.00 0.00 66 1019.9
20260906110004 0 317 0.0 0.0 0.00 0.00 0.00 1020.1
20260906105632 65 317 0.0 0.0 0.00 0.00 0.00 65 1020.1
20260906105513 0 317 0.0 0.0 0.00 0.00 0.00 1020.3
20260906105123 65 317 0.0 0.0 0.00 0.00 0.00 64 1019.9
20260906105009 0 317 0.0 0.0 0.00 0.00 0.00 1020.1
20260906104634 65 317 0.0 0.0 0.00 0.00 0.00 63 1019.8
20260906104529 0 317 0.0 0.0 0.00 0.00 0.00 1020.1
20260906104125 65 317 0.0 0.0 0.00 0.00 0.00 63 1019.9
20260906104011 0 317 0.0 0.0 0.00 0.00 0.00 1020.2
20260906103652 65 324 0.0 0.0 0.00 0.00 0.00 62 1019.9
20260906103508 0 324 0.0 0.0 0.00 0.00 0.00 1020.2
20260906103141 66 324 0.0 0.0 0.00 0.00 0.00 61 1019.9
20260906103026 0 324 0.0 0.0 0.00 0.00 0.00 1020.1
20260906102634 66 324 0.0 0.0 0.00 0.00 0.00 60 1019.8
20260906102510 0 324 0.0 0.0 0.00 0.00 0.00 1020.0
20260906102145 66 343 0.0 0.0 0.00 0.00 0.00 59 1019.7
20260906102011 0 343 0.0 0.0 0.00 0.00 0.00 1019.9
20260906101633 66 344 0.0 0.0 0.00 0.00 0.00 59 1019.7
20260906101523 0 344 0.0 0.0 0.00 0.00 0.00 1020.0
20260906101123 67 344 0.0 0.0 0.00 0.00 0.00 59 1019.7
20260906101010 0 344 0.0 0.0 0.00 0.00 0.00 1019.9
20260906100654 67 344 0.0 0.0 0.00 0.00 0.00 59 1019.6
20260906100518 0 344 0.0 0.0 0.00 0.00 0.00 1019.9
20260906100124 67 344 0.0 0.0 0.00 0.00 0.00 58 1019.7
20260906100017 0 344 0.0 0.0 0.00 0.00 0.00 1020.0
20260906095637 67 344 0.0 0.0 0.00 0.00 0.00 58 1019.7
20260906095507 0 344 0.0 0.0 0.00 0.00 0.00 1020.0
20260906095127 67 341 0.0 0.0 0.00 0.00 0.00 57 1019.8
20260906095016 0 341 0.0 0.0 0.00 0.00 0.00 1020.1
20260906094640 67 340 0.0 0.0 0.00 0.00 0.00 57 1019.6
20260906094527 0 341 0.0 0.0 0.00 0.00 0.00 1019.9
20260906094134 67 340 0.0 0.0 0.00 0.00 0.00 56 1019.6
20260906094017 0 340 0.0 0.0 0.00 0.00 0.00 1020.0
20260906093645 67 340 0.0 0.0 0.00 0.00 0.00 55 1019.6
20260906093512 0 340 0.0 0.0 0.00 0.00 0.00 1020.0
20260906093155 68 340 0.0 0.0 0.00 0.00 0.00 55 1019.7
20260906093013 0 340 0.0 0.0 0.00 0.00 0.00 1020.0
20260906092623 68 340 0.0 0.0 0.00 0.00 0.00 55 1019.7
20260906092516 0 340 0.0 0.0 0.00 0.00 0.00 1020.0
20260906092137 68 340 0.0 0.0 0.00 0.00 0.00 54 1019.6
20260906092014 0 340 0.0 0.0 0.00 0.00 0.00 1019.9
20260906091628 68 340 0.0 0.0 0.00 0.00 0.00 53 1019.6
20260906091508 0 340 0.0 0.0 0.00 0.00 0.00 1019.8
20260906091137 68 340 0.0 0.0 0.00 0.00 0.00 53 1019.4
20260906091016 0 340 0.0 0.0 0.00 0.00 0.00 1019.8
20260906090649 68 340 0.0 0.0 0.00 0.00 0.00 53 1019.4
20260906090516 0 340 0.0 0.0 0.00 0.00 0.00 1019.7
20260906090139 68 340 0.0 0.0 0.00 0.00 0.00 53 1019.4
20260906090031 0 340 0.0 0.0 0.00 0.00 0.00 1019.7
20260906085651 68 344 0.0 0.0 0.00 0.00 0.00 54 1019.3
20260906085512 0 348 0.0 0.0 0.00 0.00 0.00 1019.6
20260906085141 69 348 0.0 0.0 0.00 0.00 0.00 53 1019.2
20260906085007 0 348 0.0 0.0 0.00 0.00 0.00 1019.5
20260906084629 69 348 0.0 0.0 0.00 0.00 0.00 53 1019.2
20260906084535 0 348 0.0 0.0 0.00 0.00 0.00 1019.6
20260906084142 69 94 0.0 0.0 0.00 0.00 0.00 51 1019.2
20260906084014 0 94 0.0 0.0 0.00 0.00 0.00 1019.6
20260906083635 70 101 0.0 0.0 0.00 0.00 0.00 52 1019.3
20260906083503 0 101 0.0 0.0 0.00 0.00 0.00 1019.6
20260906083123 70 106 0.0 0.0 0.00 0.00 0.00 51 1019.3
20260906083033 0 106 0.0 0.0 0.00 0.00 0.00 1019.7
20260906082637 70 109 0.0 0.0 0.00 0.00 0.00 51 1019.3
20260906082509 0 109 0.0 0.0 0.00 0.00 0.00 1019.6
20260906082125 70 109 0.0 0.0 0.00 0.00 0.00 51 1019.1
20260906082014 0 109 0.0 0.0 0.00 0.00 0.00 1019.5
20260906081656 70 109 0.0 0.0 0.00 0.00 0.00 49 1019.2
20260906081541 0 261 0.0 0.0 0.00 0.00 0.00 1019.4
20260906081145 71 261 0.0 0.0 0.00 0.00 0.00 49 1019.1
20260906081008 0 261 0.0 0.0 0.00 0.00 0.00 1019.4
20260906080637 71 261 0.0 0.0 0.00 0.00 0.00 49 1019.0
20260906080519 0 261 0.0 0.0 0.00 0.00 0.00 1019.3
20260906080127 71 261 0.0 0.0 0.00 0.00 0.00 49 1019.0
20260906080021 0 261 0.0 0.0 0.00 0.00 0.00 1019.2
20260906075636 71 261 0.0 0.0 0.00 0.00 0.00 49 1018.9
20260906075506 0 261 0.0 0.0 0.00 0.00 0.00 1019.2
20260906075127 71 239 0.0 0.0 0.00 0.00 0.00 49 1018.8
20260906075020 0 239 0.0 0.0 0.00 0.00 0.00 1019.1
20260906074658 71 251 0.0 0.0 0.00 0.00 0.00 49 1018.8
20260906074516 0 248 0.0 0.0 0.00 0.00 0.00 1019.1
20260906074129 71 274 0.0 0.0 0.00 0.00 0.00 49 1018.8
20260906074016 0 275 0.0 0.0 0.00 0.00 0.00 1019.1
20260906073639 71 273 0.0 0.0 0.00 0.00 0.00 49 1018.8
20260906073515 0 273 0.0 0.0 0.00 0.00 0.00 1019.1
20260906073131 71 268 0.0 0.0 0.00 0.00 0.00 49 1018.8
20260906073012 0 267 0.0 0.0 0.00 0.00 0.00 1019.1
20260906072642 71 267 0.0 0.0 0.00 0.00 0.00 49 1018.7
20260906072517 0 269 0.0 0.0 0.00 0.00 0.00 1019.1
20260906072132 71 279 0.0 0.0 0.00 0.00 0.00 49 1018.8
20260906072015 0 280 0.0 0.0 0.00 0.00 0.00 1019.1
20260906071642 72 275 0.0 0.0 0.00 0.00 0.00 49 1018.8
20260906071512 0 261 0.0 0.0 0.00 0.00 0.00 1019.1
20260906071134 72 242 0.0 0.0 0.00 0.00 0.00 49 1018.8
20260906071014 0 242 0.0 0.0 0.00 0.00 0.00 1019.0
20260906070623 72 242 0.0 0.0 0.00 0.00 0.00 48 1018.8
20260906070513 0 242 0.0 0.0 0.00 0.00 0.00 1019.1
20260906070135 72 242 0.0 0.0 0.00 0.00 0.00 49 1018.9
20260906070031 0 242 0.0 7.0 0.00 0.00 0.00 1019.2
20260906065623 72 244 0.0 6.1 0.00 0.00 0.00 49 1018.9
20260906065515 0 232 0.0 7.0 0.00 0.00 0.00 1019.2
20260906065133 72 256 2.6 7.0 0.00 0.00 0.00 49 1018.9
20260906065009 0 247 0.9 7.8 0.00 0.00 0.00 1019.3
20260906064623 72 232 0.0 7.0 0.00 0.00 0.00 49 1019.0
20260906064532 0 261 0.9 7.8 0.00 0.00 0.00 1019.5
20260906064136 72 210 1.7 6.1 0.00 0.00 0.00 49 1019.1
20260906064014 0 231 0.0 7.0 0.00 0.00 0.00 1019.6
20260906063627 72 234 0.0 0.0 0.00 0.00 0.00 49 1019.1
20260906063510 0 247 0.0 0.0 0.00 0.00 0.00 1019.6
20260906063138 72 271 0.0 0.0 0.00 0.00 0.00 49 1019.1
20260906063007 0 271 0.0 0.0 0.00 0.00 0.00 1019.6
20260906062628 73 239 0.0 0.0 0.00 0.00 0.00 49 1019.2
20260906062505 0 248 0.0 0.0 0.00 0.00 0.00 1019.7
20260906062138 73 244 0.0 5.2 0.00 0.00 0.00 49 1019.2
20260906062003 0 246 0.0 5.2 0.00 0.00 0.00 1019.7
20260906061629 73 229 0.0 5.2 0.00 0.00 0.00 48 1019.2
20260906061507 0 229 0.0 5.2 0.00 0.00 0.00 1019.7
20260906061156 74 261 2.6 5.2 0.00 0.00 0.00 47 1019.2
20260906061004 0 217 0.0 3.5 0.00 0.00 0.00 1019.7
20260906060644 74 213 0.0 0.0 0.00 0.00 0.00 47 1019.3
20260906060503 0 213 0.0 0.0 0.00 0.00 0.00 1019.7
20260906060136 74 213 0.0 0.0 0.00 0.00 0.00 47 1019.3
20260906060004 0 213 0.0 0.0 0.00 0.00 0.00 1019.8
20260906055625 75 213 0.0 4.3 0.00 0.00 0.00 47 1019.5
20260906055503 0 213 0.0 7.0 0.00 0.00 0.00 1020.0
20260906055140 75 213 0.0 6.1 0.00 0.00 0.00 47 1019.4
20260906055003 0 213 0.0 7.0 0.00 0.00 0.00 1020.0
20260906054631 75 200 3.5 6.1 0.00 0.00 0.00 46 1019.4
20260906054506 0 217 2.6 5.2 0.00 0.00 0.00 1019.9
20260906054141 75 221 0.0 10.4 0.00 0.00 0.00 46 1019.2
20260906054004 0 217 0.0 11.3 0.00 0.00 0.00 1020.0
20260906053652 76 225 1.7 10.4 0.00 0.00 0.00 45 1019.4
20260906053504 0 202 2.6 11.3 0.00 0.00 0.00 1020.0
20260906053121 76 232 5.2 9.6 0.00 0.00 0.00 44 1019.4
20260906053003 0 225 2.6 9.6 0.00 0.00 0.00 1019.9
20260906052636 76 291 0.0 0.0 0.00 0.00 0.00 43 1019.2
20260906052504 0 291 0.0 0.0 0.00 0.00 0.00 1019.4
20260906052148 77 292 0.0 0.0 0.00 0.00 0.00 41 1019.2
20260906052003 0 292 0.0 0.0 0.00 0.00 0.00 1019.8
20260906051639 77 227 0.0 0.0 0.00 0.00 0.00 40 1019.5
20260906051503 0 227 0.0 0.0 0.00 0.00 0.00 1020.1
20260906051131 77 227 0.0 0.0 0.00 0.00 0.00 40 1019.7
20260906051003 0 227 0.0 0.0 0.00 0.00 0.00 1020.3
20260906050701 77 225 0.0 4.3 0.00 0.00 0.00 39 1019.8
20260906050504 0 225 0.0 6.1 0.00 0.00 0.00 1020.2
20260906050130 77 225 1.7 7.8 0.00 0.00 0.00 39 1019.8
20260906050004 0 225 1.7 10.4 0.00 0.00 0.00 1020.3
20260906045656 77 194 1.7 9.6 0.00 0.00 0.00 38 1019.9
20260906045503 0 209 2.6 10.4 0.00 0.00 0.00 1020.3
20260906045126 76 175 6.1 9.6 0.00 0.00 0.00 39 1019.8
20260906045012 0 202 6.1 10.4 0.00 0.00 0.00 1020.2
20260906044640 74 213 2.6 8.7 0.00 0.00 0.00 40 1019.9
20260906044507 0 240 0.0 6.1 0.00 0.00 0.00 1020.1
20260906044132 73 183 2.6 8.7 0.00 0.00 0.00 41 1019.9
20260906044015 0 188 1.7 9.6 0.00 0.00 0.00 1020.2
20260906043625 72 176 3.5 8.7 0.00 0.00 0.00 44 1019.9
20260906043514 0 180 1.7 9.6 0.00 0.00 0.00 1020.1
20260906043156 72 159 0.0 0.0 0.00 0.00 0.00 46 1019.7
20260906043006 0 159 0.0 0.0 0.00 0.00 0.00 1020.0
20260906042625 72 269 0.0 0.0 0.00 0.00 0.00 47 1019.5
20260906042512 0 270 0.0 0.0 0.00 0.00 0.00 1019.8
20260906042140 72 270 0.0 0.0 0.00 0.00 0.00 46 1019.2
20260906042008 0 271 0.0 0.0 0.00 0.00 0.00 1019.5
20260906041653 72 271 0.0 0.0 0.00 0.00 0.00 45 1018.9
20260906041526 0 271 0.0 0.0 0.00 0.00 0.00 1019.2
20260906041121 72 271 0.0 0.0 0.00 0.00 0.00 45 1018.8
20260906041014 0 271 0.0 0.0 0.00 0.00 0.00 1019.1
20260906040637 72 271 0.0 0.0 0.00 0.00 0.00 46 1018.7
20260906040508 0 271 0.0 0.0 0.00 0.00 0.00 1019.1
20260906040128 72 271 0.0 0.0 0.00 0.00 0.00 45 1018.7
20260906040032 0 271 0.0 0.0 0.00 0.00 0.00 1019.0
20260906035659 72 272 0.0 0.0 0.00 0.00 0.00 44 1018.7
20260906035511 0 272 0.0 0.0 0.00 0.00 0.00 1019.1
20260906035129 73 273 0.0 0.0 0.00 0.00 0.00 44 1018.7
20260906035006 0 273 0.0 0.0 0.00 0.00 0.00 1019.0
20260906034642 73 273 0.0 0.0 0.00 0.00 0.00 43 1018.5
20260906034523 0 273 0.0 0.0 0.00 0.00 0.00 1018.9
20260906034135 73 273 0.0 0.0 0.00 0.00 0.00 43 1018.5
20260906034007 0 273 0.0 0.0 0.00 0.00 0.00 1018.9
20260906033636 73 273 0.0 0.0 0.00 0.00 0.00 43 1018.4
20260906033516 0 273 0.0 0.0 0.00 0.00 0.00 1018.8
20260906033127 74 266 0.0 0.0 0.00 0.00 0.00 43 1018.3
20260906033020 0 266 0.0 0.0 0.00 0.00 0.00 1018.7
20260906032638 74 266 0.0 0.0 0.00 0.00 0.00 42 1018.3
20260906032503 0 266 0.0 0.0 0.00 0.00 0.00 1018.7
20260906032131 74 266 0.0 0.0 0.00 0.00 0.00 42 1018.3
20260906032016 0 266 0.0 0.0 0.00 0.00 0.00 1018.7
20260906031625 74 266 0.0 0.0 0.00 0.00 0.00 41 1018.3
20260906031525 0 266 0.0 0.0 0.00 0.00 0.00 1018.8
20260906031132 74 267 0.0 0.0 0.00 0.00 0.00 42 1018.3
20260906031019 0 267 0.0 0.0 0.00 0.00 0.00 1018.7
20260906030642 74 309 0.0 0.0 0.00 0.00 0.00 42 1018.2
20260906030514 0 309 0.0 0.0 0.00 0.00 0.00 1018.6
20260906030134 75 312 0.0 0.0 0.00 0.00 0.00 41 1018.0
20260906030013 0 312 0.0 0.0 0.00 0.00 0.00 1018.4
20260906025625 76 323 0.0 0.0 0.00 0.00 0.00 40 1017.8
20260906025516 0 323 0.0 0.0 0.00 0.00 0.00 1018.2
20260906025140 76 323 0.0 0.0 0.00 0.00 0.00 38 1017.6
20260906025013 0 323 0.0 0.0 0.00 0.00 0.00 1018.2
20260906024630 77 323 0.0 0.0 0.00 0.00 0.00 38 1017.5
20260906024507 0 323 0.0 0.0 0.00 0.00 0.00 1018.1
20260906024123 78 323 0.0 0.0 0.00 0.00 0.00 37 1017.4
20260906024019 0 323 0.0 0.0 0.00 0.00 0.00 1018.0
20260906023633 78 323 0.0 0.0 0.00 0.00 0.00 36 1017.3
20260906023511 0 323 0.0 0.0 0.00 0.00 0.00 1017.8
20260906023124 79 323 0.0 0.0 0.00 0.00 0.00 34 1017.3
20260906023032 0 323 0.0 0.0 0.00 0.00 0.00 1017.8
20260906022654 80 323 0.0 0.0 0.00 0.00 0.00 34 1017.3
20260906022512 0 323 0.0 0.0 0.00 0.00 0.00 1017.8
20260906022124 80 323 0.0 0.0 0.00 0.00 0.00 33 1017.3
20260906022011 0 323 0.0 0.0 0.00 0.00 0.00 1017.8
20260906021634 80 323 0.0 0.0 0.00 0.00 0.00 32 1017.3
20260906021531 0 323 0.0 0.0 0.00 0.00 0.00 1017.8
20260906021124 81 323 0.0 0.0 0.00 0.00 0.00 32 1017.3
20260906021014 0 323 0.0 0.0 0.00 0.00 0.00 1017.8
20260906020637 81 323 0.0 0.0 0.00 0.00 0.00 32 1017.3
20260906020508 0 323 0.0 0.0 0.00 0.00 0.00 1017.7
20260906020149 81 323 0.0 0.0 0.00 0.00 0.00 31 1017.2
20260906020032 0 323 0.0 0.0 0.00 0.00 0.00 1017.7
20260906015700 81 323 0.0 0.0 0.00 0.00 0.00 31 1017.2
20260906015513 0 323 0.0 0.0 0.00 0.00 0.00 1017.6
20260906015129 82 323 0.0 0.0 0.00 0.00 0.00 30 1017.1
20260906015017 0 323 0.0 0.0 0.00 0.00 0.00 1017.6
20260906014700 82 323 0.0 0.0 0.00 0.00 0.00 29 1017.1
20260906014527 0 323 0.0 0.0 0.00 0.00 0.00 1017.6
20260906014130 82 323 0.0 0.0 0.00 0.00 0.00 28 1017.0
20260906014012 0 323 0.0 0.0 0.00 0.00 0.00 1017.4
20260906013624 83 323 0.0 0.0 0.00 0.00 0.00 28 1016.9
20260906013514 0 323 0.0 0.0 0.00 0.00 0.00 1017.3
20260906013136 83 330 0.0 0.0 0.00 0.00 0.00 28 1016.8
20260906013021 0 330 0.0 0.0 0.00 0.00 0.00 1017.3
20260906012630 83 336 0.0 2.6 0.00 0.00 0.00 28 1016.9
20260906012507 0 336 0.0 2.6 0.00 0.00 0.00 1017.4
20260906012123 83 336 0.0 2.6 0.00 0.00 0.00 27 1016.9
20260906012016 0 337 0.0 2.6 0.00 0.00 0.00 1017.4
20260906011637 84 322 0.9 3.5 0.00 0.00 0.00 27 1017.0
20260906011520 0 348 0.0 4.3 0.00 0.00 0.00 1017.4
20260906011125 84 338 0.0 4.3 0.00 0.00 0.00 26 1016.9
20260906011020 0 338 0.0 6.1 0.00 0.00 0.00 1017.4
20260906010656 84 325 0.9 8.7 0.00 0.00 0.00 26 1016.9
20260906010516 0 321 0.0 8.7 0.00 0.00 0.00 1017.4
20260906010124 84 348 1.7 8.7 0.00 0.00 0.00 26 1016.9
20260906010013 0 332 0.9 8.7 0.00 0.00 0.00 1017.3
20260906005638 85 305 3.5 8.7 0.00 0.00 0.00 25 1016.8
20260906005516 0 354 3.5 8.7 0.00 0.00 0.00 1017.3
20260906005130 85 353 1.7 6.1 0.00 0.00 0.00 26 1016.8
20260906005014 0 355 0.9 5.2 0.00 0.00 0.00 1017.3
20260906004643 85 350 0.0 0.0 0.00 0.00 0.00 26 1016.8
20260906004512 0 350 0.0 0.0 0.00 0.00 0.00 1017.3
20260906004135 85 350 0.0 0.0 0.00 0.00 0.00 26 1016.7
20260906004014 0 349 0.0 0.0 0.00 0.00 0.00 1017.3
20260906003646 86 352 0.0 0.0 0.00 0.00 0.00 26 1016.7
20260906003512 0 352 0.0 0.0 0.00 0.00 0.00 1017.3
20260906003158 86 354 0.0 0.0 0.00 0.00 0.00 27 1016.8
20260906003032 0 354 0.0 0.0 0.00 0.00 0.00 1017.4
20260906002628 87 358 0.0 0.0 0.00 0.00 0.00 28 1016.9
20260906002515 0 26 0.0 0.0 0.00 0.00 0.00 1017.3
20260906002155 88 91 0.0 0.0 0.00 0.00 0.00 31 1016.8
20260906002013 0 91 0.0 0.0 0.00 0.00 0.00 1017.3
20260906001646 89 91 0.0 0.0 0.00 0.00 0.00 31 1016.8
20260906001533 0 91 0.0 0.0 0.00 0.00 0.00 1017.3
20260906001139 89 91 0.0 0.0 0.00 0.00 0.00 27 1016.7
20260906001013 0 91 0.0 0.0 0.00 0.00 0.00 1017.3
20260906000630 90 91 0.0 0.0 0.00 0.00 0.00 25 1016.7
20260906000507 0 91 0.0 0.0 0.00 0.00 0.00 1017.2
20260906000140 91 91 0.0 0.0 0.00 0.00 0.00 26 1016.7
20260906000030 0 91 0.0 0.0 0.00 0.00 0.00 1017.2
20260905235653 91 91 0.0 0.0 0.00 0.00 0.00 25 1016.6
20260905235513 0 91 0.0 0.0 0.00 0.00 0.00 1017.2
20260905235124 92 91 0.0 0.0 0.00 0.00 0.00 24 1016.6
20260905235018 0 91 0.0 0.0 0.00 0.00 0.00 1017.1
20260905234656 92 91 0.0 0.0 0.00 0.00 0.00 21 1016.6
20260905234527 0 91 0.0 0.0 0.00 0.00 0.00 1017.2
20260905234146 92 91 0.0 0.0 0.00 0.00 0.00 21 1016.7
20260905234017 0 91 0.0 0.0 0.00 0.00 0.00 1017.2
20260905233639 93 91 0.0 0.0 0.00 0.00 0.00 20 1016.7
20260905233515 0 91 0.0 0.0 0.00 0.00 0.00 1017.2
20260905233129 93 91 0.0 0.0 0.00 0.00 0.00 21 1016.6
20260905233031 0 91 0.0 0.0 0.00 0.00 0.00 1017.2
20260905232642 93 91 0.0 0.0 0.00 0.00 0.00 20 1016.7
20260905232512 0 91 0.0 0.0 0.00 0.00 0.00 1017.2
20260905232133 93 61 0.0 0.0 0.00 0.00 0.00 20 1016.6
20260905232016 0 61 0.0 0.0 0.00 0.00 0.00 1017.2
20260905231635 93 59 0.0 0.0 0.00 0.00 0.00 22 1016.6
20260905231520 0 86 0.0 0.0 0.00 0.00 0.00 1017.1
20260905231126 92 57 0.0 0.0 0.00 0.00 0.00 21 1016.6
20260905231018 0 57 0.0 0.0 0.00 0.00 0.00 1017.1
20260905230636 92 99 0.0 0.0 0.00 0.00 0.00 20 1016.6
20260905230517 0 99 0.0 0.0 0.00 0.00 0.00 1017.1
20260905230127 92 99 0.0 0.0 0.00 0.00 0.00 20 1016.6
20260905230016 0 99 0.0 0.0 0.00 0.00 0.00 1017.1
20260905225631 92 99 0.0 0.0 0.00 0.00 0.00 20 1016.6
20260905225518 0 98 0.0 0.0 0.00 0.00 0.00 1017.1
20260905225141 93 100 0.0 0.0 0.00 0.00 0.00 21 1016.5
20260905225013 0 94 0.0 0.0 0.00 0.00 0.00 1017.1
20260905224635 93 105 0.0 0.0 0.00 0.00 0.00 20 1016.6
20260905224512 0 101 0.0 0.0 0.00 0.00 0.00 1017.0